Location: Newark
(43.4306°N, 0.3089°E)
Time: 19:05:18
(UTC+00:00)

Vanguard 3 - Pass Details

Date: 31 August 2019
Orbit: 508 x 3262 km, 33.3° (Epoch: 18 October)

Event Time Altitude Azimuth Distance (km) Brightness Sun altitude
Rises 11:46:27 0° 207° (SSW) 7,141 12.4 55.1°
Reaches altitude 10° 11:52:58 10° 196° (SSW) 5,897 12.2 55.2°
Maximum altitude 12:05:06 24° 152° (SSE) 4,082 11.7 55.2°
Drops below altitude 10° 12:14:03 10° 106° (ESE) 4,273 11.0 55.1°
Sets 12:17:43 0° 92° (E) 4,858 11.1 55.0°
